[[{"header":{"parameterUnit":"m.s-1","parameterCategory":1,"la1":30.2991,"la2":30.254,"lo1":-89.0895,"lo2":-89.0444,"dy":0.0017,"dx":0.0017,"nx":28,"ny":28,"refTime":"2024-09-04T03:00:00:Z","depth":0,"parameterNumber":2,"parameterNumberName":"U-component_of_WINDS"},"data":[0,0,0,0,0,0,0,0,0,0,0,0,0,0,0,0,0,0,0,0,0,0,0,0,0,0,0,0,0,0,0,0,0,0,0,0,0,0,0,0,0,0,0,0,0,0,0,0,0,0,0,0,0,0,0,0,0,0,-5.2704,-5.2704,0,-5.2758,-5.2758,-5.2759,-5.2623,-5.2619,-5.2615,-5.2611,-5.2672,-5.2678,-5.2683,0,0,0,0,0,0,0,0,0,0,0,0,0,-5.2488,-5.2493,-5.2704,-5.2704,-5.2705,-5.2758,-5.2758,-5.2759,-5.2624,-5.2619,-5.2614,-5.2609,-5.2671,-5.2677,-5.2684,0,0,0,0,0,0,0,0,0,0,0,0,0,-5.2566,-5.2495,-5.2703,-5.2644,-5.2639,-5.2757,-5.2758,-5.2759,-5.2625,-5.2619,-5.2612,-5.2606,-5.2668,-5.2677,-5.2685,-5.2866,0,0,-5.2711,-5.2714,0,0,0,0,0,0,0,0,-5.2562,-5.2574,-5.2652,-5.2648,-5.2643,-5.2677,-5.2705,-5.2795,-5.2627,-5.2631,-5.2611,-5.2603,-5.268,-5.2687,-5.2711,-5.2869,-5.2871,-5.2711,-5.2717,-5.272,-5.2723,0,0,0,0,0,0,0,-5.2557,-5.2571,-5.2725,-5.2653,-5.2648,-5.2616,-5.262,-5.2721,-5.2691,-5.263,-5.262,-5.2628,-5.2676,-5.2703,-5.2712,-5.2872,-5.2711,-5.2719,-5.2724,-5.2727,-5.3181,-5.3187,0,0,0,0,0,0,-5.2558,-5.2568,-5.2723,-5.2727,-5.2586,-5.2625,-5.2629,-5.2673,-5.2689,-5.2685,-5.2633,-5.2622,-5.2692,-5.2702,-5.2713,-5.2926,-5.272,-5.2728,-5.2733,-5.3174,-5.3182,-5.319,0,0,0,0,0,0,-5.2554,-5.2574,-5.2721,-5.2645,-5.2661,-5.2636,-5.2685,-5.2677,-5.2704,-5.2692,-5.2686,-5.2667,-5.2687,-5.2701,-5.2828,-5.2926,-5.2732,-5.274,-5.3165,-5.3176,-5.3186,-5.3352,0,0,0,0,0,0,-5.2549,-5.2573,-5.264,-5.2647,-5.2665,-5.2834,-5.2691,-5.2683,-5.2718,-5.2703,-5.2722,-5.2719,-5.2683,-5.2816,-5.2837,-5.2934,-5.2746,-5.3157,-5.317,-5.3183,-5.3338,-5.3367,-5.3392,0,0,0,0,0,-5.2541,-5.2686,-5.2644,-5.2664,-5.2749,-5.284,-5.2851,-5.2806,-5.2727,-5.2795,-5.2787,-5.2718,-5.2912,-5.2831,-5.2852,-5.2954,-5.315,-5.3166,-5.3182,-5.3326,-5.3362,-5.3392,0,0,0,0,0,0,-5.2694,-5.2686,-5.2639,-5.279,-5.2817,-5.2817,-5.2901,-5.2845,-5.2896,-5.288,-5.2823,-5.2829,-5.2967,-5.2973,-5.2882,-5.3129,-5.3018,-5.3039,-5.312,-5.3154,-5.3181,-5.3176,-5.2753,0,0,0,0,0,-5.2744,-5.2817,-5.2807,-5.2942,-5.2957,-5.2928,-5.2966,-5.2928,-5.2954,-5.2965,-5.2966,-5.2996,-5.3063,-5.3109,-5.317,-5.3338,-5.3341,-5.3419,-5.3446,-5.3468,-5.3487,-5.3577,-5.3611,-5.3241,-5.3241,-5.3241,0,0,-5.2851,-5.2856,-5.2906,-5.2972,-5.2988,-5.3067,-5.2938,-5.3026,-5.3084,-5.2979,-5.3098,-5.3101,-5.313,-5.3278,-5.3344,-5.3288,-5.359,-5.3488,-5.3506,-5.3513,-5.3596,-5.3632,-5.3663,-5.3252,-5.325,-5.3248,0,0,-5.3084,-5.3095,-5.3208,-5.3226,-5.3251,-5.323,-5.3258,-5.3266,-5.3263,-5.3381,-5.3304,-5.3374,-5.3491,-5.3514,-5.3542,-5.3785,-5.3723,-5.3807,-5.3948,-5.4036,-5.4066,-5.4091,-5.4178,-5.421,-5.3825,-5.3826,-5.3826,0,-5.3214,-5.3327,-5.3273,-5.3367,-5.3399,-5.3305,-5.342,-5.3441,-5.3486,-5.3511,-5.3447,-5.3592,-5.3605,-5.3758,-5.3817,-5.3842,-5.3873,-5.3804,-5.4065,-5.409,-5.4114,-5.4196,-5.4229,-5.3836,-5.3835,-5.3833,-5.3833,0,-5.3485,-5.3565,-5.3653,-5.3696,-5.3739,-5.3843,-5.3806,-5.3856,-5.3815,-5.3802,-5.3924,-5.3936,-5.3999,-5.4032,-5.3994,-5.418,-5.4144,-5.4074,-5.3961,-5.416,-5.4236,-5.4267,-5.385,-5.3846,-5.3843,-5.3841,0,0,-5.3816,-5.3828,-5.3861,-5.388,-5.39,-5.3962,-5.4062,-5.4121,-5.4164,-5.4199,-5.4282,-5.4383,-5.4318,-5.435,-5.4314,-5.4391,-5.4583,-5.4311,-5.4311,-5.4361,-5.4789,-5.4842,-5.4879,-5.4542,-5.4548,-5.4552,-5.4786,0,-5.4047,-5.4216,-5.4171,-5.434,-5.4414,-5.4326,-5.4413,-5.4437,-5.4427,-5.4489,-5.4479,-5.4552,-5.446,-5.4478,-5.4551,-5.4544,-5.4668,-5.4527,-5.4621,-5.4625,-5.4616,-5.4919,-5.4975,-5.5195,-5.4816,-5.4821,-5.4825,0,-5.4338,-5.4381,-5.4558,-5.4566,-5.4595,-5.4674,-5.4724,-5.4784,-5.481,-5.4797,-5.4832,-5.4781,-5.4881,-5.4767,-5.4906,-5.4811,-5.4846,-5.4849,-5.4857,-5.4864,-5.4737,-5.4935,-5.5264,-5.5297,-5.4871,-5.4867,-5.4864,0,-5.4562,-5.4665,-5.4783,-5.4802,-5.4815,-5.4872,-5.4881,-5.4899,-5.4937,-5.4982,-5.5006,-5.5063,-5.5094,-5.514,-5.5106,-5.5026,-5.5251,-5.5134,-5.5245,-5.5246,-5.5296,-5.5294,-5.5636,-5.532,-5.5319,-5.5318,-5.5318,0,-5.4824,-5.4936,-5.4884,-5.4957,-5.508,-5.5028,-5.5151,-5.515,-5.5167,-5.524,-5.5168,-5.5238,-5.5188,-5.5255,-5.523,-5.5348,-5.5363,-5.5357,-5.5349,-5.5364,-5.5365,-5.5387,-5.5371,-5.5327,-5.5325,-5.5324,-5.5322,0,-5.5095,-5.5065,-5.5188,-5.5189,-5.5192,-5.5283,-5.5285,-5.5353,-5.5338,-5.5431,-5.545,-5.5427,-5.5501,-5.5472,-5.5552,-5.5534,-5.5687,-5.5658,-5.5678,-5.567,-5.5783,-5.5773,-5.6152,-5.62,-5.5852,-5.5856,-5.5859,0,-5.5264,-5.5348,-5.5357,-5.5399,-5.5412,-5.5482,-5.5519,-5.5472,-5.5515,-5.555,-5.5615,-5.5682,-5.5734,-5.5858,-5.585,-5.5911,-5.5883,-5.6012,-5.5892,-5.5904,-5.5886,-5.5881,-5.589,-5.6036,-5.6041,-5.6044,-5.6046,0,-5.5568,-5.5548,-5.5605,-5.5657,-5.5703,-5.5742,-5.5775,-5.5815,-5.5768,-5.5821,-5.5895,-5.5935,-5.6015,-5.6084,-5.6138,-5.6148,-5.6092,-5.6084,-5.6113,-5.6129,-5.6137,-5.6134,-5.5743,-5.6076,-5.6073,-5.6071,-5.6069,-5.6068,-5.5793,-5.5863,-5.588,-5.5946,-5.5965,-5.5997,-5.6061,-5.6053,-5.6114,-5.6174,-5.6143,-5.6229,-5.6253,-5.6319,-5.6338,-5.6406,-5.6356,-5.6398,-5.6409,-5.642,-5.6435,-5.6126,-5.6416,-5.6415,-5.6414,-5.6414,-5.6413,0,-5.6093,-5.6099,-5.616,-5.6207,-5.6259,-5.6197,-5.6231,-5.6279,-5.6355,-5.6381,-5.6433,-5.6519,-5.6585,-5.6582,-5.6643,-5.6699,-5.6674,-5.6717,-5.6712,-5.6716,-5.6476,-5.6444,-5.6736,-5.6736,-5.6736,-5.6736,-5.6736,-5.6735,-5.6255,-5.637,-5.6353,-5.6477,-5.6483,-5.6565,-5.659,-5.662,-5.664,-5.6738,-5.6792,-5.6788,-5.6803,-5.6865,-5.6924,-5.6922,-5.6948,-5.7001,-5.6989,-5.6765,-5.6733,-5.6702,-5.6672,-5.7007,-5.7007,-5.7223,-5.7225,-5.7227]},{"header":{"parameterUnit":"m.s-1","parameterCategory":1,"la1":30.2991,"la2":30.254,"lo1":-89.0895,"lo2":-89.0444,"dy":0.0017,"dx":0.0017,"nx":28,"ny":28,"refTime":"2024-09-04T03:00:00:Z","depth":0,"parameterNumber":3,"parameterNumberName":"V-component_of_WINDS"},"data":[0,0,0,0,0,0,0,0,0,0,0,0,0,0,0,0,0,0,0,0,0,0,0,0,0,0,0,0,0,0,0,0,0,0,0,0,0,0,0,0,0,0,0,0,0,0,0,0,0,0,0,0,0,0,0,0,0,0,-1.6123,-1.6123,0,-1.6072,-1.6071,-1.6071,-1.6018,-1.6017,-1.6016,-1.6015,-1.5963,-1.5962,-1.5962,0,0,0,0,0,0,0,0,0,0,0,0,0,-1.6175,-1.6174,-1.6123,-1.6123,-1.6122,-1.6072,-1.6071,-1.607,-1.6018,-1.6017,-1.6016,-1.6015,-1.5963,-1.5962,-1.5961,0,0,0,0,0,0,0,0,0,0,0,0,0,-1.6141,-1.6174,-1.6124,-1.609,-1.6086,-1.6072,-1.6071,-1.607,-1.6018,-1.6017,-1.6016,-1.6015,-1.5963,-1.5962,-1.5961,-1.5976,0,0,-1.5958,-1.5958,0,0,0,0,0,0,0,0,-1.6143,-1.6139,-1.6095,-1.6092,-1.6088,-1.605,-1.607,-1.6039,-1.6018,-1.6044,-1.6015,-1.6014,-1.5993,-1.5989,-1.5982,-1.5974,-1.5972,-1.5958,-1.5957,-1.5957,-1.5956,0,0,0,0,0,0,0,-1.6145,-1.6141,-1.6103,-1.6095,-1.609,-1.6077,-1.6071,-1.6064,-1.6025,-1.6042,-1.6038,-1.6032,-1.5991,-1.5983,-1.598,-1.5971,-1.5958,-1.5957,-1.5956,-1.5956,-1.5969,-1.597,0,0,0,0,0,0,-1.6153,-1.6143,-1.6105,-1.6101,-1.6113,-1.6077,-1.607,-1.6063,-1.6025,-1.6018,-1.6033,-1.603,-1.5985,-1.5982,-1.5978,-1.5991,-1.5957,-1.5956,-1.5955,-1.5968,-1.5969,-1.597,0,0,0,0,0,0,-1.6154,-1.615,-1.6107,-1.6121,-1.6115,-1.6077,-1.607,-1.6063,-1.6055,-1.6019,-1.6011,-1.6033,-1.5984,-1.598,-1.5976,-1.5989,-1.5955,-1.5954,-1.5967,-1.5969,-1.597,-1.6019,0,0,0,0,0,0,-1.6156,-1.6151,-1.6157,-1.6122,-1.6114,-1.6107,-1.6071,-1.6063,-1.6054,-1.6049,-1.6016,-1.601,-1.5983,-1.5978,-1.5975,-1.5987,-1.5953,-1.5966,-1.5968,-1.5969,-1.6016,-1.6022,-1.6027,0,0,0,0,0,-1.6158,-1.6173,-1.6157,-1.6153,-1.6121,-1.6107,-1.6103,-1.6072,-1.6055,-1.606,-1.6036,-1.6011,-1.5988,-1.5978,-1.5975,-1.5986,-1.5965,-1.5967,-1.5969,-1.6013,-1.6021,-1.6027,0,0,0,0,0,0,-1.6211,-1.6168,-1.615,-1.6154,-1.6135,-1.6098,-1.6104,-1.6081,-1.6066,-1.6062,-1.6024,-1.6017,-1.6018,-1.6002,-1.5992,-1.5997,-1.5973,-1.5974,-1.6007,-1.6014,-1.6019,-1.6023,-1.5953,0,0,0,0,0,-1.6223,-1.6216,-1.6179,-1.6186,-1.6177,-1.6143,-1.6136,-1.6113,-1.6091,-1.6083,-1.6059,-1.6039,-1.6026,-1.6019,-1.6006,-1.6013,-1.6004,-1.6019,-1.6024,-1.6029,-1.603,-1.603,-1.6036,-1.5978,-1.5978,-1.5978,0,0,-1.6249,-1.6224,-1.6222,-1.6196,-1.6179,-1.6171,-1.6136,-1.6131,-1.6124,-1.6082,-1.6077,-1.6058,-1.6033,-1.6034,-1.6033,-1.6021,-1.6044,-1.6032,-1.6036,-1.6035,-1.6033,-1.6039,-1.6043,-1.5979,-1.5979,-1.5979,0,0,-1.6291,-1.6272,-1.6275,-1.6258,-1.6231,-1.6207,-1.6208,-1.6174,-1.616,-1.6154,-1.6121,-1.6113,-1.6094,-1.6076,-1.6065,-1.6098,-1.6073,-1.6095,-1.6123,-1.6123,-1.6128,-1.6132,-1.6141,-1.6146,-1.6096,-1.6097,-1.6097,0,-1.6326,-1.6314,-1.628,-1.6276,-1.6264,-1.6225,-1.6227,-1.6211,-1.6182,-1.6175,-1.616,-1.6133,-1.6114,-1.6109,-1.6116,-1.6109,-1.6108,-1.6098,-1.613,-1.6133,-1.6136,-1.6145,-1.6149,-1.6099,-1.6099,-1.6099,-1.6098,0,-1.6357,-1.6349,-1.6355,-1.6326,-1.6316,-1.6315,-1.628,-1.6273,-1.6251,-1.6228,-1.6221,-1.6196,-1.6176,-1.6173,-1.6152,-1.6165,-1.6157,-1.6137,-1.6112,-1.6145,-1.6153,-1.6156,-1.6103,-1.6102,-1.6101,-1.6101,0,0,-1.6433,-1.6384,-1.6386,-1.6371,-1.6338,-1.6331,-1.6327,-1.6307,-1.6301,-1.6281,-1.6276,-1.6259,-1.6239,-1.6227,-1.6203,-1.6203,-1.6228,-1.6182,-1.6181,-1.6191,-1.6238,-1.6252,-1.6257,-1.6212,-1.6212,-1.6213,-1.6239,0,-1.6468,-1.6459,-1.6427,-1.6428,-1.6419,-1.638,-1.6376,-1.6355,-1.6333,-1.6321,-1.6297,-1.6285,-1.6261,-1.6252,-1.6251,-1.6225,-1.6237,-1.6223,-1.6205,-1.6205,-1.6212,-1.6261,-1.6278,-1.6304,-1.6242,-1.6243,-1.6243,0,-1.6508,-1.649,-1.6489,-1.6454,-1.6449,-1.6446,-1.6424,-1.6414,-1.6388,-1.6372,-1.6356,-1.6329,-1.6321,-1.6298,-1.6286,-1.6277,-1.6268,-1.6254,-1.6254,-1.6251,-1.6226,-1.6258,-1.6312,-1.6316,-1.6248,-1.6248,-1.6247,0,-1.6561,-1.6537,-1.6532,-1.6521,-1.648,-1.6479,-1.6462,-1.6434,-1.6423,-1.6404,-1.6396,-1.6376,-1.6365,-1.6349,-1.6317,-1.6303,-1.6307,-1.6282,-1.6293,-1.6294,-1.6295,-1.6296,-1.6347,-1.6291,-1.6291,-1.6291,-1.6291,0,-1.6604,-1.6604,-1.6555,-1.6553,-1.6552,-1.6514,-1.6514,-1.6493,-1.6469,-1.646,-1.6426,-1.6418,-1.6376,-1.6364,-1.6338,-1.6331,-1.6327,-1.6313,-1.6306,-1.6315,-1.6317,-1.6308,-1.6305,-1.6292,-1.6292,-1.6292,-1.6291,0,-1.6663,-1.663,-1.6623,-1.6584,-1.6574,-1.6574,-1.654,-1.6536,-1.6511,-1.6501,-1.6496,-1.6457,-1.644,-1.6406,-1.6381,-1.6363,-1.6361,-1.635,-1.637,-1.6366,-1.6378,-1.6377,-1.6425,-1.6429,-1.6372,-1.6372,-1.6373,0,-1.6692,-1.6691,-1.6651,-1.6643,-1.6627,-1.6614,-1.6602,-1.6565,-1.6554,-1.6523,-1.6521,-1.6502,-1.6484,-1.6459,-1.6428,-1.6407,-1.6394,-1.6412,-1.6391,-1.6399,-1.6392,-1.6392,-1.6391,-1.6417,-1.6418,-1.6419,-1.6419,0,-1.6746,-1.6729,-1.6713,-1.6692,-1.6678,-1.6659,-1.6639,-1.6634,-1.6591,-1.658,-1.6562,-1.6549,-1.6521,-1.6501,-1.6475,-1.6456,-1.643,-1.6426,-1.6427,-1.6436,-1.6448,-1.644,-1.6382,-1.6425,-1.6424,-1.6424,-1.6424,-1.6423,-1.6789,-1.6786,-1.6757,-1.674,-1.672,-1.6701,-1.6694,-1.6668,-1.6652,-1.6627,-1.6605,-1.6589,-1.656,-1.6523,-1.6505,-1.6491,-1.6478,-1.648,-1.6481,-1.6481,-1.6485,-1.645,-1.6486,-1.6486,-1.6486,-1.6486,-1.6485,0,-1.684,-1.6819,-1.6804,-1.6775,-1.6761,-1.6738,-1.6713,-1.6703,-1.6688,-1.6664,-1.6647,-1.6625,-1.6605,-1.6571,-1.6548,-1.6543,-1.653,-1.6538,-1.6538,-1.6533,-1.6498,-1.6499,-1.6549,-1.6549,-1.6549,-1.6549,-1.6549,-1.6549,-1.6865,-1.6857,-1.6837,-1.6818,-1.6797,-1.678,-1.6768,-1.6749,-1.6729,-1.6706,-1.6689,-1.6668,-1.6639,-1.6613,-1.6593,-1.6584,-1.6576,-1.6588,-1.6574,-1.6542,-1.6536,-1.6531,-1.6531,-1.6587,-1.6587,-1.6611,-1.6611,-1.6611]}]]